Skip Page Navigation
NASA JPL Caltech
NASA Logo - Jet Propulsion Laboratory + View the NASA Portal
+ Center for Near-Earth Object Studies
JPL Home Earth Solar System Stars & Galaxies Technology
JPL Solar System Dynamics
BODIES ORBITS EPHEMERIDES TOOLS PHYSICAL DATA DISCOVERY FAQ SITE MAP
JPL Small-Body Database Browser
Search: [ help ]  
305347 (2008 AV135)
Classification: Main-belt Asteroid          SPK-ID: 2305347
Ephemeris | Orbit Diagram | Orbital Elements | Mission Design | Physical Parameters | Discovery Circumstances ]

[ show orbit diagram ]
Orbital Elements at Epoch 2459000.5 (2020-May-31.0) TDB
Reference: JPL 11 (heliocentric ecliptic J2000)
 Element Value Uncertainty (1-sigma)   Units 
e .1144865474947707 6.6877e-08  
a 3.008625491355742 4.9348e-08 au
q 2.664178346145665 2.2668e-07 au
i 11.93098330330284 6.1006e-06 deg
node 88.42467785499612 2.8432e-05 deg
peri 312.5325735225235 4.5781e-05 deg
M 208.736962616967 4.2811e-05 deg
tp 2459801.404878812540
(2022-Aug-09.90487881)
0.00024284 TDB
period 1906.121689480603
5.22
4.6896e-05
1.284e-07
d
yr
n .1888651716135165 4.6467e-09 deg/d
Q 3.353072636565819 5.4997e-08 au
  Orbit Determination Parameters
   # obs. used (total)      180  
   data-arc span      6831 days (18.70 yr)  
   first obs. used      2001-10-11  
   last obs. used      2020-06-24  
   planetary ephem.      DE431  
   SB-pert. ephem.      SB431-N16  
   condition code      0  
   norm. resid. RMS      .56754  
   source      ORB  
   producer      Otto Matic  
   solution date      2020-Nov-11 19:12:22  

Additional Information
 Earth MOID = 1.69048 au 
 Jupiter MOID = 2.03528 au 
 T_jup = 3.208 
[ show covariance matrix ]

Ephemeris | Orbit Diagram | Orbital Elements | Mission Design | Physical Parameters | Discovery Circumstances ]

Physical Parameter Table
Parameter Symbol Value Units Sigma Reference Notes
absolute magnitude H 15.8   n/a MPO433967  

305347 (2008 AV135)          Discovered 2008-Jan-11 by LINEAR at Socorro
Reference: 20111110/Numbers.arcLast Updated: 2011-11-14
Ephemeris | Orbit Diagram | Orbital Elements | Mission Design | Physical Parameters | Discovery Circumstances ]
ABOUT SSD CREDITS/AWARDS PRIVACY/COPYRIGHT GLOSSARY LINKS
FirstGov 2020-Nov-27 12:53 UT
(server date/time)  
NASA Home Page
Site Manager:   Ryan S. Park
Webmaster  Alan B. Chamberlin